TimeCDT,TemperatureF,Dew PointF,Humidity,Sea Level PressureIn,VisibilityMPH,Wind Direction,Wind SpeedMPH,Gust SpeedMPH,PrecipitationIn,Events,Conditions,WindDirDegrees,DateUTC
12:53 AM,48.0,44.1,86,29.94,4.0,NNE,23.0,33.4,0.04,Rain,Rain,30,2013-10-05 05:53:00
1:05 AM,46.4,44.6,93,29.92,2.0,NNE,19.6,31.1,0.05,Rain,Heavy Rain,20,2013-10-05 06:05:00
1:16 AM,46.4,44.6,93,29.92,1.8,NNE,19.6,28.8,0.15,Rain,Heavy Rain,30,2013-10-05 06:16:00
1:26 AM,46.4,44.6,93,29.91,2.0,NNE,21.9,29.9,0.21,Rain,Heavy Rain,30,2013-10-05 06:26:00
1:29 AM,46.4,44.6,93,29.91,1.8,NNE,20.7,29.9,0.24,Rain,Heavy Rain,30,2013-10-05 06:29:00
1:37 AM,46.4,44.6,93,29.93,2.0,NNE,18.4,26.5,0.31,Rain,Heavy Rain,30,2013-10-05 06:37:00
1:51 AM,46.4,44.6,93,29.93,2.0,NNE,16.1,25.3,0.38,Rain,Heavy Rain,30,2013-10-05 06:51:00
1:53 AM,46.9,44.1,90,29.95,2.0,NNE,15.0,24.2,0.40,Rain,Heavy Rain,30,2013-10-05 06:53:00
2:14 AM,46.4,44.6,93,29.92,3.0,NNE,16.1,23.0,0.08,Rain,Rain,30,2013-10-05 07:14:00
2:53 AM,48.0,45.0,89,29.90,3.0,NE,19.6,25.3,0.12,Rain,Light Rain,40,2013-10-05 07:53:00
3:00 AM,48.2,44.6,87,29.87,6.0,NNE,21.9,27.6,0.00,Rain,Light Rain,30,2013-10-05 08:00:00
3:19 AM,48.2,44.6,87,29.87,10.0,NE,20.7,26.5,0.00,,Overcast,40,2013-10-05 08:19:00
3:53 AM,48.9,45.0,86,29.87,10.0,NE,19.6,26.5,0.00,,Overcast,40,2013-10-05 08:53:00
4:53 AM,48.9,45.0,86,29.85,10.0,NE,20.7,26.5,N/A,,Overcast,40,2013-10-05 09:53:00
5:53 AM,48.9,45.0,86,29.83,10.0,NE,18.4,25.3,N/A,,Overcast,40,2013-10-05 10:53:00
6:53 AM,48.9,45.0,86,29.83,10.0,NE,21.9,25.3,N/A,,Overcast,50,2013-10-05 11:53:00
7:53 AM,48.9,44.1,83,29.85,6.0,NE,17.3,23.0,0.00,Rain,Light Rain,40,2013-10-05 12:53:00
8:21 AM,48.2,44.6,87,29.83,1.8,NE,17.3,-,0.00,Rain,Light Rain,40,2013-10-05 13:21:00
8:53 AM,48.0,45.0,89,29.85,1.2,NE,16.1,-,0.00,Rain,Light Rain,40,2013-10-05 13:53:00
9:14 AM,48.2,44.6,87,29.84,1.2,NE,15.0,21.9,0.01,Rain,Light Rain,40,2013-10-05 14:14:00
9:53 AM,48.9,46.0,90,29.85,1.8,NE,15.0,21.9,0.01,Rain,Light Rain,40,2013-10-05 14:53:00
10:00 AM,48.2,46.4,93,29.83,2.5,NE,15.0,21.9,0.00,Rain,Light Rain,50,2013-10-05 15:00:00
10:21 AM,48.2,46.4,93,29.83,4.0,NE,18.4,24.2,0.00,,Overcast,40,2013-10-05 15:21:00
10:49 AM,50.0,46.4,87,29.82,4.0,NE,20.7,27.6,0.00,,Overcast,40,2013-10-05 15:49:00
10:53 AM,50.0,46.0,86,29.84,4.0,NE,15.0,27.6,0.01,,Overcast,40,2013-10-05 15:53:00
11:01 AM,50.0,46.4,87,29.83,6.0,NE,17.3,24.2,N/A,,Overcast,40,2013-10-05 16:01:00
11:13 AM,50.0,46.4,87,29.82,10.0,NE,18.4,25.3,N/A,,Overcast,40,2013-10-05 16:13:00
11:53 AM,52.0,46.9,83,29.83,10.0,NE,16.1,24.2,N/A,,Overcast,40,2013-10-05 16:53:00
12:14 PM,51.8,46.4,82,29.82,10.0,NE,12.7,21.9,N/A,,Overcast,40,2013-10-05 17:14:00
12:53 PM,53.1,48.0,83,29.84,10.0,NE,12.7,19.6,N/A,,Overcast,40,2013-10-05 17:53:00
1:30 PM,53.6,46.4,77,29.81,10.0,NE,13.8,-,N/A,,Overcast,40,2013-10-05 18:30:00
1:53 PM,54.0,46.9,77,29.82,10.0,NE,16.1,-,N/A,,Overcast,50,2013-10-05 18:53:00
2:53 PM,53.1,46.9,80,29.82,10.0,NNE,16.1,21.9,N/A,,Overcast,20,2013-10-05 19:53:00
3:17 PM,51.8,46.4,82,29.81,10.0,North,17.3,21.9,N/A,,Overcast,10,2013-10-05 20:17:00
3:53 PM,51.1,46.0,83,29.83,10.0,North,16.1,25.3,N/A,,Overcast,10,2013-10-05 20:53:00
4:01 PM,50.0,46.4,87,29.81,10.0,North,16.1,25.3,N/A,,Overcast,10,2013-10-05 21:01:00
4:10 PM,50.0,46.4,87,29.80,10.0,North,18.4,-,N/A,,Overcast,10,2013-10-05 21:10:00
4:53 PM,48.9,46.0,90,29.82,6.0,North,15.0,25.3,N/A,,Overcast,10,2013-10-05 21:53:00
5:53 PM,48.9,46.0,90,29.83,1.8,NNE,18.4,-,0.00,Rain,Light Rain,20,2013-10-05 22:53:00
6:04 PM,48.2,46.4,93,29.82,2.0,NNE,18.4,26.5,0.00,Rain,Light Rain,20,2013-10-05 23:04:00
6:38 PM,48.2,46.4,93,29.81,1.8,NNE,16.1,24.2,0.00,Rain,Light Rain,20,2013-10-05 23:38:00
6:47 PM,48.2,46.4,93,29.81,3.0,North,19.6,26.5,0.00,Rain,Light Rain,10,2013-10-05 23:47:00
6:53 PM,48.0,46.0,93,29.83,3.0,North,16.1,26.5,0.00,,Overcast,10,2013-10-05 23:53:00
7:53 PM,46.9,45.0,93,29.85,5.0,North,16.1,28.8,0.00,Rain,Light Rain,10,2013-10-06 00:53:00
8:28 PM,46.4,44.6,93,29.84,6.0,NNE,15.0,21.9,0.03,Rain,Light Rain,20,2013-10-06 01:28:00
8:53 PM,46.9,44.1,90,29.86,6.0,North,20.7,27.6,0.05,Rain,Light Rain,10,2013-10-06 01:53:00
9:53 PM,46.9,44.1,90,29.89,6.0,North,12.7,-,0.05,Rain,Light Rain,10,2013-10-06 02:53:00
10:34 PM,46.4,44.6,93,29.87,7.0,North,13.8,-,0.06,Rain,Light Rain,10,2013-10-06 03:34:00
10:53 PM,46.9,44.1,90,29.88,6.0,NNW,15.0,-,0.09,Rain,Rain,340,2013-10-06 03:53:00
11:53 PM,46.9,44.1,90,29.84,10.0,North,21.9,28.8,0.08,Rain,Light Rain,350,2013-10-06 04:53:00